Weather in Trenkino

Russia / Chuvash Republic     56°09′55″N   46°48′11″E
temp.,
°C
wind,
m/s
gust,
m/s
humid.,
%
clouds,
%
prec.,
mm/h
press.,
hPa
HPBL,
m
16 april, fri
fri1600:00+9ne61193100 0.0 1021438
03:00+7ne6128992 0.0 1022464
06:00+6ne51190100 0.0 1023461
09:00+8ene6108197 0.0 1024545
12:00+12ene6868100 0.0 1024780
15:00+14ene675928 0.0 10251039
18:00+11ene610656 0.0 1025654
21:00+7ene511725 0.0 1027375
17 april, sat
sat1700:00+5ene410755 0.0 1027292
03:00+3ene410765 0.0 1028258
06:00+3ene410715 0.0 1028305
09:00+8ene58495 0.0 1028584
12:00+12ene56332 0.0 10271116
15:00+13ene56313 0.0 10261324
18:00+10ene47470 0.0 1026226
21:00+6ene410680 0.0 1027198
18 april, sun
sun1800:00+4ene38740 0.0 1027151
03:00+2ene37810 0.0 1027118
06:00+3ene39810 0.0 1027227
09:00+9ene58560 0.0 1026784
12:00+12ene57425 0.0 10261688
15:00+13ene6742100 0.0 10251880
18:00+9ene7106097 0.0 1027936
21:00+6ene51167100 0.0 1028533
19 april, mon
mon1900:00+4ene51163100 0.0 1029542
03:00+3ene51159100 0.0 1030478
06:00+2e5126396 0.0 1031553
09:00+5e7104782 0.0 1032935
12:00+8e78365 0.0 10321491
15:00+9e78312 0.0 10311658
18:00+7e69390 0.0 10321077
21:00+4e513460 0.0 1032484
20 april, tue
tue2000:00+2e514515 0.0 1032457
03:000e512575 0.0 1032335
06:00+1e513590 0.0 1032427
09:00+6ese812445 0.0 1031995
12:00+9ese81138100 0.0 10291246
15:00+10ese8114088 0.0 10281327
18:00+8ese71342100 0.0 1027946
21:00+6ese7164191 0.0 1026733